GFSNGP_850_dewp_138.txt.gz
Dewpoint
-2 -4 -4 -4 -4 -4 -1 -4 -1 2 -1 -3 -5 -5 -6 -5 -4 -4 -4 -5 -7 -9 -21 -29 -29 -33 -34 -34 -34 -34 -35 -34 -33 -31 -29 -29 -28 -28 -26 -21 -15 -12 -9 -6
1 -5 -5 -1 -3 -4 -1 -2 -0 0 -2 -6 -8 -6 -5 -4 -3 -4 -4 -6 -8 -13 -13 -15 -19 -33 -34 -35 -34 -33 -35 -35 -33 -33 -34 -34 -31 -33 -33 -32 -31 -32 -30 -31
1 -3 -2 1 3 1 -2 -3 -3 -3 -6 -8 -6 -5 -4 -3 -3 -4 -4 -6 -10 -13 -13 -15 -23 -30 -32 -33 -34 -33 -34 -33 -33 -34 -35 -36 -35 -34 -34 -33 -34 -35 -37 -37
2 -1 3 3 -6 -5 -3 -5 -7 -7 -7 -8 -6 -3 -2 -2 -3 -3 -5 -8 -11 -12 -12 -19 -21 -28 -29 -30 -31 -32 -33 -31 -29 -32 -34 -36 -36 -36 -34 -33 -34 -35 -36 -37
3 1 -3 -4 -5 -4 -3 -4 -6 -6 -6 -4 -3 -4 -3 -3 -3 -4 -6 -8 -13 -18 -22 -17 -21 -26 -27 -28 -29 -31 -33 -32 -29 -30 -32 -34 -36 -36 -32 -28 -33 -36 -36 -38
1 1 -0 -3 -5 -4 -3 0 -6 -4 -3 -3 -4 -0 1 -3 -4 -5 -7 -11 -24 -24 -20 -23 -23 -25 -26 -28 -29 -31 -32 -31 -30 -30 -31 -33 -33 -34 -32 -29 -27 -32 -36 -38
1 2 -1 -5 -4 -3 -0 -2 -3 -3 -3 -3 -2 -1 -3 -3 -5 -6 -7 -22 -25 -25 -24 -23 -24 -25 -26 -28 -29 -30 -31 -32 -32 -30 -30 -31 -32 -30 -24 -23 -20 -17 -22 -32
0 4 1 -6 -3 -2 -4 -3 -2 -2 -1 -2 -3 -4 -5 -5 -6 -6 -15 -24 -24 -24 -22 -22 -22 -24 -26 -27 -29 -28 -30 -32 -31 -29 -28 -28 -29 -27 -18 -13 -13 -13 -12 -13
-2 -2 -3 -4 -5 -4 -3 -3 -2 -2 -1 -3 -4 -5 -5 -6 -6 -9 -20 -25 -23 -22 -22 -21 -21 -23 -25 -27 -28 -27 -29 -32 -32 -31 -29 -20 -13 -12 -12 -12 -12 -12 -12 -13
-2 -3 -4 -4 -4 -3 -2 -2 -2 -2 -2 -3 -4 -5 -5 -6 -8 -10 -18 -24 -22 -21 -22 -22 -22 -22 -23 -26 -28 -28 -31 -32 -32 -30 -23 -15 -13 -12 -12 -12 -12 -13 -13 -13
-2 -0 -3 -3 -3 -3 -2 -1 -2 -3 -3 -4 -4 -4 -5 -6 -8 -10 -15 -20 -20 -20 -20 -20 -21 -22 -23 -25 -27 -28 -30 -31 -30 -30 -23 -22 -22 -14 -13 -16 -15 -13 -14 -14
1 -4 -3 -2 -3 -4 -2 -1 -2 -3 -3 -3 -4 -4 -5 -7 -8 -11 -13 -15 -14 -12 -15 -17 -18 -22 -23 -24 -25 -27 -29 -27 -23 -21 -19 -14 -14 -17 -32 -26 -21 -18 -17 -16
-2 -1 -1 -3 -4 -5 -4 -3 -2 -3 -3 -3 -4 -5 -6 -8 -9 -12 -13 -14 -13 -12 -12 -15 -16 -18 -19 -20 -20 -18 -19 -25 -29 -20 -16 -15 -14 -14 -13 -17 -24 -27 -26 -21
-1 -2 -2 -3 -2 -4 -4 -4 -4 -3 -3 -4 -5 -6 -7 -8 -10 -12 -14 -14 -14 -13 -13 -14 -15 -18 -21 -21 -22 -26 -27 -30 -24 -23 -16 -14 -14 -14 -15 -14 -14 -15 -22 -31
-1 -2 -2 -3 -3 -3 -4 -4 -4 -4 -4 -5 -5 -7 -8 -9 -11 -13 -14 -15 -15 -14 -15 -18 -19 -21 -23 -25 -25 -26 -27 -26 -22 -24 -22 -24 -17 -15 -15 -15 -15 -16 -16 -18
-2 -3 -3 -3 -3 -3 -4 -4 -4 -4 -4 -5 -6 -7 -8 -10 -10 -12 -13 -17 -21 -21 -23 -23 -22 -23 -24 -24 -24 -25 -26 -27 -25 -22 -22 -21 -21 -17 -16 -16 -16 -16 -18 -26
-3 -3 -3 -3 -3 -3 -4 -4 -4 -4 -5 -5 -6 -7 -8 -9 -10 -10 -9 -15 -21 -22 -23 -23 -22 -23 -23 -22 -22 -22 -23 -26 -25 -22 -24 -26 -25 -22 -22 -19 -19 -18 -18 -31
-3 -4 -4 -4 -4 -4 -4 -4 -5 -5 -5 -5 -6 -7 -8 -9 -9 -10 -10 -16 -19 -19 -20 -20 -20 -22 -22 -22 -22 -22 -23 -24 -23 -21 -26 -28 -28 -30 -30 -28 -29 -24 -20 -23
-3 -4 -4 -5 -4 -4 -4 -5 -5 -5 -5 -6 -6 -7 -8 -9 -10 -9 -10 -14 -18 -20 -21 -19 -18 -19 -22 -23 -23 -22 -22 -20 -22 -23 -25 -29 -30 -31 -30 -26 -28 -30 -28 -24
-4 -5 -5 -5 -5 -5 -5 -6 -5 -5 -6 -6 -7 -8 -9 -9 -9 -9 -10 -15 -18 -20 -24 -21 -18 -19 -21 -21 -22 -19 -20 -19 -21 -23 -25 -28 -30 -30 -31 -32 -31 -30 -29 -29
-5 -5 -5 -5 -5 -5 -5 -5 -6 -6 -7 -7 -8 -8 -9 -9 -9 -10 -15 -17 -18 -21 -24 -22 -19 -20 -20 -22 -22 -21 -21 -19 -22 -23 -26 -29 -31 -31 -31 -31 -31 -31 -30 -30
-5 -5 -5 -5 -5 -6 -6 -6 -6 -6 -7 -7 -8 -9 -9 -9 -10 -12 -11 -11 -18 -22 -25 -20 -19 -21 -22 -22 -18 -19 -20 -20 -23 -25 -28 -30 -31 -31 -31 -31 -31 -30 -30 -29
-5 -5 -5 -5 -5 -6 -6 -6 -6 -7 -7 -8 -8 -9 -9 -10 -10 -10 -11 -16 -21 -26 -25 -22 -23 -22 -21 -19 -17 -19 -19 -23 -25 -29 -31 -31 -31 -31 -31 -31 -30 -30 -29 -28
-5 -5 -5 -5 -6 -6 -6 -6 -7 -7 -7 -8 -8 -9 -9 -9 -10 -10 -11 -18 -23 -26 -26 -26 -24 -21 -18 -17 -17 -18 -20 -24 -29 -31 -32 -32 -31 -31 -31 -30 -30 -29 -28 -28
-5 -5 -5 -6 -6 -6 -6 -6 -7 -7 -8 -8 -9 -9 -9 -9 -9 -10 -10 -19 -23 -26 -26 -24 -20 -18 -16 -16 -17 -18 -22 -26 -30 -32 -32 -31 -31 -31 -30 -30 -29 -28 -28 -27
-6 -6 -6 -6 -7 -7 -7 -7 -8 -8 -8 -8 -9 -9 -9 -10 -10 -10 -17 -25 -27 -24 -23 -20 -17 -16 -15 -15 -17 -19 -23 -27 -31 -32 -31 -31 -31 -30 -30 -29 -28 -28 -27 -27
-6 -6 -6 -6 -6 -6 -7 -7 -8 -8 -8 -9 -9 -9 -10 -10 -10 -19 -21 -26 -19 -18 -19 -16 -15 -14 -15 -16 -17 -19 -23 -28 -31 -31 -31 -31 -30 -30 -29 -28 -28 -27 -27 -27

GFSNGP_850_dewp_141.txt.gz
Dewpoint
-1 -4 -3 -3 -4 -5 -2 -4 -1 1 -3 -5 -5 -6 -7 -7 -6 -5 -3 -3 -4 -5 -7 -8 -17 -30 -33 -35 -35 -35 -35 -33 -34 -34 -32 -29 -24 -21 -13 -19 -19 -13 -21 -19
6 -4 -4 -3 -4 -5 -3 -3 -2 -2 -2 -5 -7 -7 -7 -7 -5 -4 -3 -3 -4 -6 -8 -10 -11 -26 -30 -32 -34 -34 -34 -33 -34 -34 -33 -32 -29 -24 -26 -20 -26 -24 -21 -26
4 -2 -3 -0 2 -0 -3 -4 -4 -2 -5 -8 -8 -8 -8 -5 -3 -3 -3 -3 -5 -7 -11 -12 -12 -19 -18 -31 -34 -30 -32 -32 -34 -34 -33 -32 -30 -27 -25 -27 -28 -28 -26 -26
1 1 3 -1 -4 -4 -2 -3 -6 -8 -9 -9 -7 -4 -1 -2 -2 -2 -3 -4 -6 -10 -11 -11 -14 -14 -16 -15 -24 -29 -25 -30 -32 -33 -32 -29 -28 -26 -22 -25 -26 -31 -34 -35
2 1 -3 -5 -6 -5 -5 -4 -7 -7 -8 -8 -3 -3 -3 -2 -2 -2 -3 -4 -8 -9 -10 -12 -13 -14 -15 -15 -15 -17 -21 -22 -23 -31 -30 -27 -24 -22 -19 -17 -19 -26 -36 -38
-0 0 -1 -6 -6 -6 -5 2 -6 -9 -8 -6 -3 -2 2 -2 -2 -2 -4 -6 -9 -9 -10 -11 -13 -14 -17 -17 -24 -29 -27 -19 -25 -23 -27 -27 -17 -16 -19 -13 -13 -12 -16 -32
-0 -1 -4 -8 -6 -5 0 -2 -6 -7 -6 -3 -1 0 1 -2 -2 -3 -5 -7 -10 -17 -14 -22 -23 -26 -28 -29 -31 -31 -32 -30 -30 -30 -27 -25 -14 -11 -11 -11 -11 -11 -11 -13
-1 -1 -2 -8 -4 -1 -4 -3 -4 -4 -2 -1 -1 -2 -3 -3 -3 -5 -6 -8 -18 -23 -22 -23 -24 -26 -28 -29 -31 -31 -32 -32 -31 -29 -27 -22 -16 -13 -11 -10 -10 -10 -11 -11
-4 -4 -5 -6 -5 -3 -3 -4 -3 -4 -1 -1 -3 -3 -4 -4 -4 -5 -7 -12 -22 -24 -24 -23 -23 -25 -27 -29 -30 -31 -32 -32 -32 -27 -20 -13 -11 -11 -10 -11 -10 -10 -10 -11
-3 -4 -5 -3 -4 -5 -5 -3 -3 -2 -2 0 -4 -4 -4 -4 -4 -6 -8 -11 -21 -23 -22 -22 -22 -24 -26 -27 -30 -30 -32 -31 -28 -18 -13 -12 -11 -12 -11 -11 -11 -11 -11 -12
-3 -0 -5 -6 -5 -4 -4 -3 -2 -1 -1 -1 -2 -3 -4 -4 -5 -6 -8 -10 -11 -16 -20 -22 -22 -24 -26 -27 -29 -29 -30 -27 -22 -16 -15 -22 -21 -13 -13 -21 -17 -13 -12 -14
1 -4 -3 -3 -1 -1 -1 -1 -1 -1 -1 -2 -1 -2 -3 -4 -5 -7 -9 -10 -11 -12 -12 -16 -19 -23 -25 -26 -28 -27 -22 -17 -12 -12 -11 -11 -12 -21 -30 -29 -32 -33 -31 -24
-2 -4 -6 -0 -1 -2 -2 -2 -1 -1 -2 -2 -2 -3 -4 -4 -6 -8 -9 -10 -12 -12 -12 -12 -12 -15 -20 -23 -22 -15 -15 -14 -14 -12 -12 -12 -12 -12 -11 -15 -15 -21 -33 -34
-3 -1 -1 -1 -2 -2 -2 -2 -2 -2 -2 -3 -3 -4 -4 -5 -6 -8 -10 -11 -12 -12 -12 -12 -12 -12 -13 -14 -14 -15 -14 -16 -13 -12 -12 -12 -12 -12 -12 -12 -12 -13 -18 -25
-2 -1 -2 -1 -1 -2 -3 -3 -2 -3 -3 -3 -4 -4 -5 -5 -7 -9 -10 -12 -13 -13 -11 -12 -12 -11 -13 -14 -19 -24 -24 -19 -12 -12 -12 -13 -13 -13 -13 -13 -14 -14 -14 -15
-2 -2 -2 -2 -2 -3 -3 -3 -3 -3 -3 -3 -4 -4 -5 -6 -8 -9 -11 -13 -12 -12 -11 -11 -11 -14 -15 -19 -24 -25 -20 -19 -16 -15 -20 -13 -13 -13 -14 -14 -14 -14 -15 -28
-2 -3 -3 -2 -3 -3 -3 -3 -4 -4 -4 -4 -4 -5 -6 -7 -8 -10 -11 -12 -10 -11 -11 -11 -13 -18 -21 -23 -23 -18 -20 -26 -17 -13 -13 -14 -14 -14 -15 -15 -15 -16 -16 -25
-4 -4 -3 -3 -3 -3 -3 -3 -3 -3 -4 -4 -5 -6 -7 -8 -8 -9 -9 -10 -11 -11 -11 -12 -18 -21 -23 -23 -17 -12 -13 -18 -18 -13 -15 -19 -15 -19 -19 -19 -20 -17 -17 -19
-3 -3 -3 -3 -3 -3 -3 -3 -3 -4 -5 -5 -5 -6 -7 -7 -8 -9 -10 -10 -11 -11 -12 -17 -20 -21 -22 -21 -15 -13 -13 -13 -14 -14 -15 -20 -25 -23 -19 -17 -17 -18 -19 -18
-3 -3 -3 -3 -4 -3 -4 -4 -5 -5 -5 -6 -6 -7 -8 -8 -9 -9 -10 -11 -11 -11 -14 -19 -18 -19 -20 -21 -19 -13 -13 -13 -14 -14 -15 -16 -16 -16 -17 -26 -26 -23 -18 -19
-3 -4 -5 -6 -6 -6 -5 -5 -6 -6 -6 -7 -7 -8 -9 -10 -10 -10 -10 -11 -11 -12 -15 -18 -16 -17 -19 -21 -20 -13 -13 -13 -14 -15 -18 -17 -20 -18 -17 -18 -19 -21 -19 -19
-5 -5 -5 -5 -5 -6 -6 -6 -6 -6 -7 -7 -8 -9 -10 -10 -10 -10 -11 -11 -12 -16 -20 -18 -17 -16 -16 -20 -16 -14 -14 -14 -15 -15 -16 -16 -17 -17 -18 -19 -24 -21 -22 -22
-5 -5 -5 -5 -6 -6 -6 -6 -6 -7 -7 -8 -8 -9 -10 -10 -10 -11 -11 -12 -11 -11 -19 -20 -17 -15 -18 -18 -14 -14 -14 -15 -15 -16 -17 -18 -20 -21 -21 -21 -24 -29 -29 -28
-5 -5 -5 -5 -5 -6 -6 -6 -7 -7 -7 -8 -8 -9 -10 -10 -10 -11 -11 -10 -13 -15 -21 -17 -17 -20 -20 -14 -14 -15 -15 -16 -19 -23 -27 -30 -31 -31 -31 -31 -31 -29 -29 -29
-5 -5 -5 -5 -6 -6 -7 -6 -7 -7 -8 -9 -9 -9 -10 -10 -10 -10 -11 -10 -11 -20 -13 -17 -21 -21 -15 -15 -15 -17 -17 -19 -23 -28 -32 -32 -32 -32 -31 -31 -30 -29 -28 -28
-6 -6 -6 -6 -6 -6 -7 -8 -7 -8 -9 -9 -9 -9 -10 -10 -10 -10 -10 -12 -18 -14 -14 -21 -22 -18 -16 -16 -16 -17 -18 -21 -26 -29 -32 -32 -32 -31 -31 -30 -30 -29 -28 -28
-6 -6 -6 -6 -6 -7 -7 -7 -7 -8 -8 -9 -9 -10 -10 -10 -10 -10 -11 -14 -15 -14 -18 -22 -20 -16 -16 -15 -15 -17 -19 -20 -23 -30 -32 -32 -31 -31 -31 -30 -29 -28 -28 -28

GFSNGP_850_dewp_147.txt.gz
Dewpoint
1 -1 -1 -0 0 0 1 0 0 -0 -1 -2 -3 -4 -6 -6 -4 -1 -1 -0 -1 -2 -3 -5 -7 -11 -22 -29 -34 -35 -35 -36 -36 -36 -34 -32 -32 -31 -35 -35 -34 -31 -26 -25
2 -0 -0 0 0 -0 1 1 1 1 1 -3 -4 -5 -5 -7 -4 -1 -1 -1 -2 -3 -3 -4 -6 -11 -16 -24 -33 -34 -34 -35 -36 -35 -34 -33 -31 -32 -37 -37 -37 -36 -32 -28
3 0 2 4 1 0 -0 -1 -1 1 -1 -4 -5 -4 -5 -6 -6 -5 -3 -2 -2 -3 -4 -5 -6 -9 -16 -21 -29 -29 -32 -34 -35 -35 -35 -32 -29 -33 -38 -38 -38 -38 -37 -33
4 1 4 0 -0 -1 -0 -2 -3 -4 -5 -5 -4 -2 -2 -3 -3 -3 -3 -2 -3 -3 -4 -6 -8 -10 -16 -19 -26 -21 -27 -30 -33 -35 -34 -29 -28 -31 -31 -32 -35 -36 -38 -37
5 5 1 -1 -2 -1 1 -0 -2 -3 -5 -3 -2 -2 -1 -2 -3 -3 -2 -3 -3 -3 -4 -7 -10 -12 -14 -17 -21 -20 -22 -23 -27 -31 -31 -28 -27 -24 -21 -20 -21 -26 -29 -35
5 5 5 -1 -4 -6 -3 -0 -4 -5 -5 -2 -3 -1 -2 -2 -3 -2 -2 -2 -3 -4 -6 -10 -11 -13 -15 -15 -15 -17 -21 -23 -23 -26 -24 -25 -22 -19 -16 -15 -13 -18 -23 -27
4 4 3 -2 -7 -6 -1 -1 -5 -6 -5 -3 -2 -2 -1 -1 -2 -2 -2 -3 -3 -4 -7 -10 -12 -13 -15 -16 -16 -19 -24 -23 -25 -25 -22 -21 -17 -14 -12 -11 -11 -13 -17 -24
4 5 4 -5 -7 -2 -2 -3 -6 -5 -4 -3 -1 -0 -1 -2 -2 -3 -3 -3 -4 -5 -7 -9 -11 -12 -15 -17 -19 -25 -27 -27 -28 -27 -23 -20 -16 -11 -10 -10 -10 -11 -15 -22
1 1 -3 -3 -2 -3 -2 -3 -4 -4 -4 -4 -3 -2 -3 -3 -3 -3 -4 -4 -5 -6 -7 -9 -10 -12 -19 -21 -26 -30 -30 -30 -29 -24 -19 -18 -15 -14 -12 -11 -11 -13 -17 -24
-1 -3 -4 -4 -3 -2 -2 -3 -4 -4 -3 -2 -2 -2 -4 -4 -3 -3 -4 -4 -5 -6 -8 -8 -10 -17 -22 -26 -29 -30 -31 -30 -26 -21 -19 -18 -15 -13 -13 -14 -16 -19 -25 -30
-1 -2 -4 -4 -2 -2 -2 -1 -3 -2 -3 -2 -1 -2 -2 -4 -4 -4 -4 -4 -5 -6 -7 -9 -15 -23 -24 -26 -28 -30 -30 -27 -22 -20 -17 -16 -20 -26 -20 -29 -25 -26 -30 -32
-1 -2 -3 -2 -2 -1 -2 -2 -3 -2 -2 -2 -1 -1 -1 -2 -3 -3 -4 -5 -5 -6 -8 -12 -19 -24 -24 -25 -27 -28 -29 -25 -21 -19 -21 -21 -30 -28 -26 -28 -33 -34 -35 -35
-3 -6 -3 -2 -3 -2 -1 -2 -3 -3 -2 -1 -1 -1 -1 -1 -3 -3 -4 -5 -6 -7 -8 -16 -20 -22 -22 -23 -25 -26 -27 -24 -20 -16 -14 -14 -14 -13 -14 -15 -16 -19 -24 -29
-5 -4 -2 -2 -1 -1 -1 -2 -2 -2 -1 -1 -1 -1 -1 -2 -3 -3 -4 -5 -7 -8 -9 -12 -15 -18 -19 -21 -23 -25 -21 -18 -14 -13 -12 -12 -12 -12 -13 -13 -14 -15 -19 -23
-3 -4 -4 -4 -2 -1 -1 -1 -2 -2 -2 -2 -2 -2 -2 -2 -3 -3 -4 -6 -7 -9 -10 -11 -12 -13 -15 -19 -22 -18 -13 -12 -14 -12 -12 -12 -12 -12 -14 -14 -14 -15 -17 -19
-5 -5 -4 -3 -2 -1 -1 -2 -2 -2 -2 -2 -2 -3 -3 -3 -3 -4 -5 -6 -8 -9 -11 -11 -11 -12 -13 -15 -16 -13 -13 -13 -15 -13 -13 -13 -13 -15 -14 -14 -14 -15 -15 -17
-3 -3 -4 -4 -2 -2 -2 -2 -3 -3 -3 -3 -3 -3 -3 -4 -4 -5 -6 -7 -8 -9 -12 -12 -11 -11 -12 -13 -13 -13 -14 -14 -15 -13 -13 -15 -17 -14 -14 -14 -15 -15 -18 -21
-2 -2 -2 -2 -2 -3 -3 -2 -3 -3 -3 -3 -3 -3 -4 -4 -5 -6 -7 -8 -10 -11 -12 -11 -11 -11 -9 -11 -12 -13 -14 -14 -13 -16 -17 -14 -14 -15 -17 -19 -19 -20 -23 -22
-1 -3 -3 -3 -3 -3 -3 -3 -3 -3 -4 -3 -4 -4 -4 -5 -5 -7 -8 -9 -10 -10 -10 -10 -9 -9 -9 -10 -11 -15 -14 -14 -14 -13 -14 -14 -17 -18 -21 -22 -23 -23 -21 -23
-3 -3 -3 -3 -3 -2 -2 -2 -2 -4 -4 -4 -4 -5 -5 -6 -7 -7 -7 -8 -9 -9 -9 -9 -9 -9 -10 -11 -13 -14 -14 -16 -15 -14 -14 -17 -16 -18 -23 -21 -20 -20 -23 -23
-2 -2 -3 -3 -3 -3 -3 -3 -4 -5 -6 -5 -5 -6 -6 -6 -7 -7 -7 -8 -8 -9 -10 -10 -10 -10 -11 -12 -14 -13 -13 -14 -14 -15 -16 -17 -19 -18 -18 -18 -20 -22 -23 -21
-2 -3 -4 -6 -6 -6 -6 -6 -6 -6 -6 -6 -7 -7 -7 -8 -8 -8 -8 -9 -10 -11 -11 -11 -11 -12 -15 -15 -13 -13 -13 -13 -14 -14 -15 -16 -17 -18 -19 -19 -21 -21 -22 -21
-5 -6 -6 -5 -6 -6 -6 -6 -6 -6 -7 -7 -8 -8 -8 -8 -9 -9 -10 -10 -11 -11 -11 -11 -11 -13 -17 -15 -13 -14 -13 -13 -14 -13 -14 -16 -18 -19 -18 -19 -20 -21 -23 -25
-4 -5 -5 -5 -5 -6 -7 -7 -7 -7 -7 -8 -8 -8 -9 -10 -10 -10 -11 -11 -11 -11 -11 -11 -12 -15 -15 -15 -15 -13 -13 -14 -13 -14 -15 -17 -18 -19 -20 -20 -22 -24 -24 -26
-4 -5 -5 -5 -6 -6 -7 -7 -8 -8 -8 -8 -8 -9 -10 -10 -11 -11 -11 -11 -11 -11 -12 -15 -15 -13 -12 -13 -14 -14 -13 -13 -14 -16 -17 -19 -21 -24 -27 -27 -24 -29 -30 -30
-5 -5 -5 -6 -6 -6 -7 -8 -7 -8 -8 -9 -9 -10 -10 -10 -10 -10 -11 -11 -11 -11 -12 -12 -12 -12 -13 -13 -13 -13 -14 -15 -17 -18 -19 -19 -25 -27 -20 -20 -30 -30 -30 -30
-5 -6 -6 -6 -6 -6 -7 -7 -7 -8 -8 -9 -9 -9 -9 -10 -10 -10 -11 -11 -11 -12 -12 -12 -13 -13 -14 -14 -14 -15 -16 -17 -16 -17 -21 -23 -18 -17 -29 -31 -30 -30 -30 -29

GFSNGP_850_dewp_150.txt.gz
Dewpoint
4 4 2 -2 -3 -1 -0 -0 1 0 -0 -1 -0 -1 -4 -6 -5 -2 -2 -2 -3 -3 -3 -3 -2 -6 -10 -17 -28 -34 -35 -36 -36 -36 -34 -31 -33 -37 -38 -38 -35 -31 -29 -27
1 1 0 0 0 -0 1 1 0 1 1 -2 -4 -4 -5 -6 -4 -1 -1 -2 -3 -3 -2 -2 -5 -6 -9 -17 -21 -32 -35 -36 -36 -36 -33 -30 -35 -38 -38 -38 -38 -35 -31 -29
5 2 2 3 1 -0 -0 -0 -0 1 -1 -3 -3 -4 -5 -5 -3 -3 -3 -3 -2 -1 -1 -3 -4 -5 -10 -15 -22 -33 -34 -35 -35 -35 -31 -30 -35 -38 -38 -38 -38 -37 -36 -33
3 2 5 1 -2 -2 -1 -1 -2 -3 -4 -5 -5 -3 -3 -6 -5 -5 -4 -4 -3 -2 -2 -3 -4 -6 -10 -15 -25 -29 -31 -33 -34 -33 -30 -28 -31 -33 -33 -34 -36 -37 -34 -34
5 5 2 -1 -0 0 0 -1 -2 -3 -3 -2 -1 -2 -2 -3 -5 -5 -5 -5 -4 -4 -3 -4 -5 -7 -9 -16 -22 -25 -25 -26 -29 -30 -28 -26 -25 -23 -21 -21 -24 -32 -34 -28
4 5 4 -1 -4 -5 -1 1 -3 -2 -2 -1 -2 -2 -3 -3 -4 -4 -3 -3 -3 -3 -3 -4 -6 -8 -11 -16 -22 -24 -22 -22 -23 -24 -24 -23 -20 -17 -14 -14 -18 -23 -27 -27
4 5 3 -1 -2 -4 0 -1 -5 -4 -4 -2 -3 -3 -4 -2 -2 -2 -2 -2 -3 -3 -3 -4 -7 -10 -11 -15 -19 -19 -20 -21 -20 -21 -20 -19 -16 -13 -11 -12 -13 -17 -25 -30
4 5 4 -2 -3 -2 -3 -4 -5 -5 -4 -3 -3 -2 -3 -2 -3 -4 -4 -3 -3 -3 -5 -6 -8 -10 -12 -13 -17 -18 -19 -22 -22 -21 -18 -15 -12 -11 -10 -11 -12 -15 -21 -30
2 2 -0 -3 -3 -3 -4 -5 -4 -4 -4 -5 -4 -3 -4 -5 -4 -4 -4 -4 -4 -4 -5 -8 -9 -11 -12 -13 -16 -18 -20 -23 -23 -20 -18 -16 -13 -11 -11 -11 -12 -15 -21 -30
0 -3 -2 -3 -2 -3 -3 -4 -4 -4 -4 -4 -4 -4 -5 -4 -4 -4 -4 -4 -5 -6 -6 -7 -10 -11 -11 -13 -17 -19 -26 -26 -24 -21 -17 -13 -12 -12 -12 -12 -14 -18 -25 -33
-2 -3 -3 -3 -2 -1 -2 -3 -3 -3 -3 -3 -3 -3 -3 -3 -3 -4 -4 -4 -5 -6 -7 -7 -8 -10 -10 -14 -20 -24 -28 -25 -21 -18 -15 -15 -13 -11 -12 -15 -18 -24 -32 -34
-0 -3 -3 -3 -3 -4 -3 -3 -4 -3 -2 -2 -2 -3 -2 -2 -2 -3 -4 -4 -4 -5 -6 -7 -8 -9 -10 -18 -24 -27 -27 -23 -20 -16 -14 -13 -21 -21 -26 -32 -31 -33 -35 -34
-3 -4 -5 -4 -2 -2 -2 -2 -2 -2 -2 -3 -2 -1 -1 -1 -2 -2 -3 -4 -4 -5 -5 -6 -7 -9 -14 -22 -24 -26 -27 -23 -20 -15 -15 -15 -27 -21 -21 -18 -22 -28 -29 -32
-4 -3 -3 -2 -2 -2 -2 -2 -2 -3 -3 -2 -1 -1 -1 -1 -1 -2 -3 -3 -4 -5 -6 -7 -8 -10 -16 -21 -23 -24 -25 -23 -19 -16 -17 -16 -15 -13 -13 -15 -16 -17 -21 -27
-7 -5 -3 -4 -2 -2 -1 -1 -2 -2 -1 -1 -1 -1 -1 -1 -2 -2 -3 -4 -4 -6 -7 -8 -9 -13 -18 -19 -19 -22 -22 -20 -18 -14 -12 -12 -11 -12 -12 -14 -15 -16 -18 -20
-6 -8 -5 -3 -3 -1 -1 -1 -1 -2 -2 -2 -2 -2 -2 -2 -2 -3 -3 -4 -5 -6 -7 -8 -10 -11 -14 -16 -17 -20 -20 -15 -12 -12 -11 -11 -12 -12 -12 -14 -14 -15 -16 -16
-2 -3 -3 -4 -2 -1 -1 -1 -1 -2 -2 -2 -2 -2 -3 -3 -3 -3 -3 -4 -5 -6 -7 -9 -10 -11 -12 -13 -17 -20 -15 -13 -11 -13 -12 -12 -12 -12 -13 -14 -15 -15 -15 -15
-6 -6 -3 -5 -4 -2 -1 -2 -2 -3 -3 -3 -3 -3 -3 -4 -4 -4 -4 -5 -6 -8 -9 -10 -11 -11 -11 -10 -12 -15 -14 -13 -13 -13 -13 -12 -12 -14 -14 -15 -14 -14 -15 -18
-2 -2 -2 -2 -1 -2 -2 -2 -3 -3 -3 -3 -3 -3 -3 -4 -4 -4 -5 -6 -7 -8 -9 -11 -11 -11 -11 -10 -10 -11 -12 -12 -13 -13 -13 -13 -14 -14 -13 -14 -16 -17 -19 -20
-2 -2 -2 -2 -2 -3 -3 -3 -3 -3 -3 -4 -4 -4 -4 -5 -5 -6 -6 -7 -7 -8 -9 -9 -10 -10 -10 -9 -10 -10 -11 -12 -13 -13 -14 -14 -13 -14 -16 -18 -21 -21 -20 -21
-2 -2 -3 -3 -2 -2 -3 -3 -3 -3 -4 -5 -5 -5 -5 -6 -7 -7 -8 -8 -8 -9 -9 -8 -9 -9 -9 -10 -10 -11 -13 -14 -14 -14 -14 -13 -14 -15 -17 -20 -19 -16 -19 -21
-3 -3 -3 -2 -3 -3 -3 -3 -4 -5 -6 -6 -6 -6 -6 -6 -7 -7 -7 -7 -8 -8 -8 -9 -9 -10 -10 -10 -11 -12 -13 -14 -15 -15 -14 -15 -16 -17 -18 -17 -15 -18 -20 -21
-2 -3 -5 -6 -6 -6 -6 -6 -6 -6 -6 -6 -7 -7 -7 -7 -8 -8 -8 -9 -9 -10 -11 -11 -11 -11 -11 -11 -12 -14 -13 -14 -14 -14 -14 -13 -14 -16 -16 -15 -17 -18 -19 -21
-6 -6 -6 -6 -6 -6 -6 -6 -7 -7 -7 -7 -7 -8 -8 -9 -9 -9 -9 -10 -11 -11 -11 -11 -11 -11 -13 -13 -14 -13 -13 -14 -13 -13 -13 -13 -15 -15 -16 -18 -17 -18 -19 -18
-5 -5 -5 -5 -6 -6 -7 -7 -7 -8 -8 -8 -8 -9 -10 -10 -10 -10 -11 -11 -11 -11 -11 -11 -11 -12 -13 -14 -14 -13 -14 -13 -13 -13 -13 -14 -15 -16 -17 -17 -19 -21 -18 -20
-5 -5 -5 -6 -6 -6 -7 -7 -8 -8 -8 -8 -8 -10 -10 -11 -11 -11 -11 -11 -11 -11 -11 -11 -13 -14 -14 -14 -14 -13 -13 -13 -13 -14 -14 -15 -16 -15 -19 -24 -19 -18 -25 -27
-5 -6 -6 -6 -6 -6 -7 -7 -7 -8 -8 -8 -9 -10 -10 -10 -10 -10 -10 -11 -11 -11 -12 -13 -13 -12 -13 -13 -13 -13 -13 -13 -14 -15 -15 -15 -18 -23 -18 -18 -27 -29 -29 -29